This is the latest recevied weather packets stored in our database for station/object W5ADC. If no packets are shown the sender has not sent any weather packets the latest 10 day(s).
| Time | Temp. | Humidity | Pressure | Rain* | Wind** | Luminosity | Snow |
|---|---|---|---|---|---|---|---|
| 1788540606 | 32.22° C | 62% | 1011.6 hPa | 0 mm | - | 661 W/m² | - |
| 1788540301 | 32.78° C | 60% | 1011.7 hPa | 0 mm | - | 639 W/m² | - |
| 1788539997 | 32.22° C | 62% | 1011.7 hPa | 0 mm | - | 647 W/m² | - |
| 1788539696 | 31.67° C | 64% | 1011.8 hPa | 0 mm | - | 630 W/m² | - |
| 1788539396 | 31.67° C | 65% | 1011.6 hPa | 0 mm | - | 620 W/m² | - |
| 1788539091 | 31.67° C | 65% | 1011.6 hPa | 0 mm | - | 616 W/m² | - |
| 1788538786 | 31.11° C | 65% | 1011.6 hPa | 0 mm | - | 594 W/m² | - |
| 1788538482 | 31.67° C | 64% | 1011.6 hPa | 0 mm | - | 577 W/m² | - |
| 1788538177 | 31.11° C | 67% | 1011.7 hPa | 0 mm | - | 573 W/m² | - |
| 1788537872 | 31.11° C | 68% | 1011.5 hPa | 0 mm | - | 546 W/m² | - |
| 1788537567 | 30.56° C | 69% | 1011.6 hPa | 0 mm | - | 546 W/m² | - |
| 1788537262 | 30.56° C | 70% | 1011.6 hPa | 0 mm | - | 537 W/m² | - |
| 1788536960 | 30.56° C | 71% | 1011.5 hPa | 0 mm | - | 526 W/m² | - |
| 1788536655 | 30.56° C | 72% | 1011.5 hPa | 0 mm | - | 475 W/m² | - |
| 1788536350 | 30° C | 71% | 1011.6 hPa | 0 mm | - | 494 W/m² | - |
| 1788536045 | 30° C | 73% | 1011.5 hPa | 0 mm | - | 471 W/m² | - |
| 1788535742 | 30° C | 74% | 1011.4 hPa | 0 mm | - | 469 W/m² | - |
| 1788535436 | 30° C | 75% | 1011.6 hPa | 0 mm | - | 454 W/m² | - |
| 1788535135 | 29.44° C | 75% | 1011.4 hPa | 0 mm | - | 436 W/m² | - |
| 1788534830 | 30° C | 75% | 1011.7 hPa | 0 mm | - | 417 W/m² | - |
| 1788534526 | 30° C | 76% | 1011.3 hPa | 0 mm | - | 405 W/m² | - |
| 1788534221 | 29.44° C | 78% | 1011.4 hPa | 0 mm | - | 384 W/m² | - |
| 1788533918 | 28.89° C | 79% | 1011.4 hPa | 0 mm | - | 370 W/m² | - |
| 1788533615 | 28.89° C | 80% | 1011.5 hPa | 0 mm | - | 342 W/m² | - |
| 1788533310 | 28.33° C | 82% | 1011.5 hPa | 0 mm | - | 352 W/m² | - |
* Rain latest hour (hover to see other rain measurements)
** Current wind speed in m/s (hover to see current wind gust speed)